Precipitable_Water
0.39 0.39 0.32 0.31 0.29 0.27 0.30 0.26 0.24 0.23 0.23 0.22 0.19 0.19 0.24 0.29 0.28 0.30 0.38 0.42 0.50 0.46 0.56 0.63 0.71 0.71 0.73 0.77 0.75 0.86 0.85 0.94 0.93 0.92 1.03 1.13 1.06 1.11 1.29 1.38 1.28 1.23 1.21 1.23 1.24 1.29 1.34 1.35 1.27 1.33 1.37 1.35 1.41 1.45 1.45 1.45 1.45 1.43 1.42 1.40 1.31 1.36 1.42 1.40 1.44 1.51 1.54 1.58 1.58 1.55 1.54 1.52 1.53 1.52 1.54 1.56 1.59 1.57 1.55 1.59 1.56 1.54 1.46 1.38 1.27 1.22 1.22
0.39 0.38 0.37 0.38 0.31 0.27 0.31 0.31 0.28 0.24 0.22 0.21 0.21 0.23 0.27 0.31 0.33 0.35 0.40 0.38 0.52 0.53 0.64 0.67 0.74 0.77 0.74 0.78 0.85 0.88 0.86 0.90 0.93 0.97 1.07 1.03 0.92 0.99 1.25 1.31 1.36 1.27 1.29 1.27 1.25 1.31 1.32 1.36 1.31 1.33 1.44 1.38 1.37 1.39 1.45 1.47 1.47 1.46 1.46 1.39 1.35 1.34 1.39 1.44 1.52 1.56 1.59 1.60 1.58 1.54 1.52 1.47 1.47 1.57 1.57 1.57 1.62 1.62 1.58 1.54 1.53 1.46 1.40 1.33 1.26 1.21 1.18
0.38 0.39 0.37 0.33 0.34 0.30 0.33 0.33 0.32 0.27 0.26 0.22 0.24 0.31 0.33 0.31 0.32 0.34 0.38 0.42 0.58 0.73 0.79 0.82 0.85 0.75 0.79 0.79 0.79 0.82 0.84 0.90 0.92 1.01 1.04 0.99 0.93 1.04 1.21 1.28 1.37 1.36 1.36 1.37 1.29 1.34 1.34 1.35 1.29 1.37 1.42 1.46 1.47 1.45 1.46 1.51 1.48 1.50 1.48 1.40 1.37 1.37 1.39 1.46 1.56 1.56 1.60 1.61 1.62 1.54 1.52 1.59 1.57 1.56 1.59 1.62 1.65 1.64 1.59 1.50 1.41 1.37 1.32 1.26 1.20 1.18 1.11
0.36 0.39 0.38 0.35 0.36 0.36 0.37 0.36 0.33 0.45 0.39 0.38 0.38 0.43 0.48 0.37 0.49 0.52 0.59 0.64 0.75 0.90 0.89 0.90 0.86 0.78 0.79 0.74 0.77 0.81 0.82 0.93 0.99 1.04 1.06 1.07 1.06 1.13 1.17 1.34 1.47 1.48 1.45 1.48 1.36 1.39 1.40 1.40 1.41 1.41 1.43 1.50 1.50 1.49 1.54 1.54 1.56 1.54 1.50 1.43 1.38 1.38 1.43 1.49 1.53 1.57 1.59 1.57 1.63 1.60 1.56 1.56 1.59 1.64 1.67 1.70 1.68 1.69 1.64 1.48 1.33 1.30 1.24 1.19 1.17 1.12 1.07
0.35 0.39 0.38 0.38 0.36 0.37 0.40 0.46 0.48 0.54 0.52 0.55 0.54 0.52 0.58 0.62 0.68 0.59 0.60 0.63 0.77 0.84 0.95 0.93 0.86 0.82 0.86 0.86 0.89 0.94 0.94 0.98 0.93 0.94 1.02 1.08 1.20 1.25 1.38 1.56 1.67 1.73 1.70 1.61 1.61 1.58 1.53 1.49 1.49 1.54 1.55 1.54 1.53 1.57 1.56 1.64 1.64 1.60 1.52 1.46 1.42 1.39 1.41 1.45 1.50 1.57 1.60 1.58 1.63 1.64 1.60 1.64 1.64 1.68 1.73 1.72 1.67 1.74 1.70 1.45 1.32 1.25 1.21 1.14 1.09 1.00 0.93
0.40 0.40 0.38 0.38 0.36 0.36 0.42 0.52 0.64 0.56 0.55 0.60 0.53 0.59 0.57 0.68 0.63 0.61 0.73 0.74 0.79 0.79 0.86 0.89 0.90 0.90 0.93 0.96 1.05 1.12 1.10 1.00 1.01 0.98 1.08 1.30 1.41 1.59 1.69 1.67 1.64 1.75 1.69 1.67 1.67 1.61 1.65 1.61 1.62 1.65 1.68 1.62 1.61 1.64 1.65 1.66 1.63 1.63 1.59 1.53 1.46 1.45 1.42 1.43 1.48 1.58 1.59 1.62 1.63 1.65 1.70 1.68 1.74 1.69 1.69 1.62 1.69 1.68 1.63 1.43 1.21 1.20 1.16 1.10 0.95 0.82 0.77
0.37 0.45 0.43 0.36 0.34 0.42 0.60 0.56 0.57 0.62 0.61 0.61 0.59 0.62 0.66 0.82 0.80 0.73 0.77 0.81 0.79 0.78 0.86 0.90 1.00 1.02 1.01 1.07 1.00 1.02 1.10 1.21 1.18 1.20 1.34 1.40 1.45 1.49 1.56 1.48 1.41 1.53 1.38 1.42 1.64 1.68 1.63 1.60 1.62 1.61 1.59 1.58 1.58 1.59 1.63 1.61 1.64 1.64 1.64 1.59 1.53 1.52 1.50 1.47 1.47 1.54 1.63 1.66 1.64 1.67 1.72 1.73 1.73 1.68 1.62 1.61 1.70 1.72 1.56 1.31 1.24 1.15 1.03 0.90 0.85 0.78 0.74
0.48 0.46 0.44 0.33 0.36 0.54 0.66 0.66 0.63 0.61 0.57 0.69 0.62 0.59 0.70 0.73 0.68 0.66 0.65 0.81 0.91 0.90 0.89 0.94 0.96 0.98 1.04 0.98 0.93 0.94 1.06 1.19 1.16 1.12 1.14 1.17 1.32 1.41 1.32 1.34 1.56 1.57 1.44 1.41 1.38 1.59 1.63 1.62 1.56 1.54 1.59 1.63 1.57 1.59 1.64 1.63 1.66 1.67 1.67 1.65 1.61 1.60 1.57 1.55 1.51 1.55 1.62 1.64 1.67 1.67 1.69 1.74 1.72 1.64 1.57 1.62 1.66 1.64 1.48 1.31 1.17 1.05 0.93 0.84 0.79 0.73 0.67
0.39 0.42 0.43 0.46 0.58 0.52 0.50 0.52 0.58 0.51 0.56 0.63 0.60 0.60 0.68 0.78 0.71 0.71 0.70 0.74 0.81 0.78 0.83 0.91 0.93 0.99 0.95 0.86 0.92 1.11 1.10 1.16 1.29 1.26 1.24 1.21 1.24 1.31 1.39 1.37 1.39 1.56 1.60 1.54 1.56 1.57 1.63 1.64 1.56 1.58 1.58 1.56 1.56 1.61 1.63 1.67 1.68 1.69 1.70 1.67 1.67 1.65 1.63 1.60 1.55 1.58 1.64 1.64 1.66 1.66 1.69 1.71 1.66 1.60 1.60 1.64 1.66 1.62 1.40 1.15 0.96 0.86 0.81 0.82 0.79 0.67 0.55
0.51 0.55 0.51 0.46 0.43 0.40 0.47 0.50 0.60 0.65 0.73 0.77 0.74 0.66 0.66 0.79 0.77 0.80 0.78 0.80 0.86 0.89 0.90 0.97 1.03 1.02 0.87 0.80 0.91 1.08 1.15 1.20 1.18 1.05 1.21 1.30 1.37 1.46 1.43 1.42 1.39 1.41 1.43 1.49 1.49 1.50 1.51 1.56 1.59 1.70 1.67 1.57 1.55 1.62 1.65 1.67 1.69 1.72 1.71 1.70 1.72 1.72 1.69 1.69 1.65 1.61 1.63 1.65 1.66 1.68 1.70 1.67 1.62 1.60 1.63 1.69 1.66 1.56 1.22 0.99 0.85 0.87 0.95 0.88 0.82 0.69 0.52
0.48 0.48 0.45 0.48 0.43 0.49 0.57 0.57 0.59 0.68 0.70 0.64 0.72 0.63 0.58 0.74 0.79 0.86 0.80 0.82 0.85 0.86 0.89 1.01 1.10 0.98 0.83 0.82 0.94 1.04 1.06 1.07 1.09 1.09 1.24 1.34 1.31 1.33 1.30 1.25 1.26 1.20 1.28 1.38 1.35 1.43 1.51 1.48 1.62 1.73 1.74 1.62 1.60 1.67 1.69 1.71 1.74 1.75 1.75 1.74 1.72 1.75 1.76 1.73 1.70 1.70 1.70 1.72 1.71 1.72 1.68 1.68 1.66 1.62 1.63 1.63 1.61 1.38 1.13 1.05 0.92 0.80 0.89 0.78 0.71 0.60 0.47
0.46 0.46 0.40 0.44 0.48 0.51 0.58 0.66 0.68 0.70 0.67 0.69 0.64 0.47 0.55 0.87 0.87 0.94 0.89 0.81 0.83 0.81 0.94 0.98 0.92 0.81 0.76 0.82 0.84 1.09 1.13 1.21 1.26 1.21 1.22 1.26 1.21 1.16 1.13 1.23 1.27 1.24 1.25 1.42 1.46 1.35 1.36 1.47 1.64 1.75 1.80 1.86 1.68 1.75 1.84 1.88 1.77 1.73 1.77 1.77 1.83 1.83 1.78 1.77 1.72 1.75 1.77 1.75 1.75 1.76 1.73 1.73 1.71 1.68 1.68 1.61 1.50 1.18 0.99 0.93 0.89 0.80 0.76 0.68 0.58 0.49 0.44
0.49 0.52 0.47 0.49 0.51 0.61 0.68 0.73 0.73 0.74 0.69 0.58 0.44 0.44 0.65 0.85 0.87 0.94 0.90 0.86 0.89 0.94 0.99 1.04 0.92 1.00 1.04 0.99 0.98 1.09 1.20 1.26 1.23 1.25 1.13 1.05 1.11 1.16 1.18 1.26 1.40 1.23 1.29 1.35 1.33 1.30 1.38 1.53 1.69 1.85 1.96 1.69 1.50 1.46 1.54 1.58 1.57 1.66 1.76 1.80 1.82 1.82 1.79 1.76 1.72 1.76 1.77 1.78 1.78 1.78 1.79 1.75 1.75 1.72 1.65 1.52 1.34 1.09 0.89 0.78 0.71 0.62 0.55 0.48 0.47 0.46 0.52
0.51 0.59 0.50 0.52 0.55 0.74 0.76 0.79 0.79 0.76 0.57 0.42 0.52 0.85 0.92 0.88 0.91 0.92 0.93 0.88 0.90 0.94 0.91 0.96 1.00 0.98 1.00 0.99 1.09 1.16 1.18 1.05 1.15 1.09 1.11 1.05 1.10 1.17 1.23 1.36 1.26 1.24 1.19 1.21 1.29 1.27 1.40 1.57 1.73 1.77 1.68 1.47 1.55 1.57 1.64 1.60 1.58 1.66 1.68 1.72 1.77 1.79 1.78 1.71 1.71 1.73 1.78 1.81 1.81 1.80 1.77 1.77 1.72 1.67 1.58 1.42 1.23 1.01 0.87 0.77 0.64 0.57 0.46 0.52 0.49 0.55 0.62
0.57 0.54 0.51 0.47 0.45 0.70 0.75 0.73 0.71 0.82 0.62 0.63 0.79 0.88 0.89 0.87 0.84 0.87 0.87 0.87 0.85 0.88 0.87 0.90 0.93 1.02 1.00 1.02 0.98 1.02 1.09 1.06 0.98 0.96 0.97 0.98 1.05 1.17 1.26 1.21 1.17 1.19 1.24 1.19 1.23 1.35 1.51 1.64 1.73 1.65 1.41 1.33 1.49 1.54 1.52 1.60 1.68 1.70 1.70 1.75 1.79 1.78 1.75 1.75 1.71 1.77 1.82 1.81 1.74 1.77 1.76 1.76 1.70 1.59 1.46 1.30 1.10 0.93 0.81 0.70 0.62 0.54 0.50 0.50 0.56 0.59 0.69
0.52 0.49 0.51 0.56 0.76 0.84 0.90 0.84 0.74 0.81 0.93 0.97 0.98 0.91 0.86 0.99 0.96 0.92 0.99 0.94 0.96 0.94 0.90 0.88 0.92 0.96 0.93 1.00 1.15 1.05 0.99 1.03 1.06 0.98 1.11 1.16 1.11 1.10 1.04 1.11 1.27 1.32 1.27 1.25 1.23 1.30 1.44 1.60 1.68 1.61 1.40 1.36 1.46 1.48 1.51 1.64 1.74 1.74 1.73 1.76 1.78 1.75 1.72 1.71 1.69 1.73 1.79 1.76 1.74 1.74 1.76 1.74 1.65 1.52 1.37 1.22 1.03 0.86 0.77 0.67 0.59 0.54 0.52 0.59 0.64 0.66 0.61
0.74 0.58 0.75 0.86 0.97 1.05 0.97 1.04 0.97 0.95 0.96 0.98 0.98 0.99 0.96 0.93 0.99 1.12 0.99 0.92 0.95 0.94 0.86 0.90 0.93 0.89 1.00 1.09 1.14 1.21 1.20 1.15 1.13 1.15 1.17 1.26 1.20 1.13 1.14 1.20 1.29 1.26 1.31 1.28 1.30 1.36 1.44 1.53 1.65 1.62 1.47 1.38 1.45 1.47 1.56 1.68 1.71 1.67 1.68 1.73 1.75 1.74 1.73 1.73 1.74 1.76 1.73 1.71 1.70 1.70 1.73 1.68 1.55 1.42 1.27 1.13 0.94 0.77 0.74 0.69 0.60 0.57 0.57 0.63 0.66 0.70 0.70
0.89 1.00 1.01 0.96 0.95 0.95 0.97 1.05 1.05 0.95 0.92 0.91 0.88 0.91 0.91 0.93 0.93 0.96 0.93 0.98 0.90 0.94 0.93 0.92 0.94 0.95 0.99 1.08 1.10 1.09 1.07 1.05 1.08 1.13 1.11 1.15 1.26 1.22 1.27 1.26 1.24 1.24 1.29 1.32 1.32 1.34 1.40 1.46 1.61 1.65 1.56 1.52 1.45 1.44 1.61 1.69 1.71 1.69 1.72 1.73 1.73 1.72 1.72 1.73 1.74 1.71 1.67 1.65 1.69 1.68 1.66 1.57 1.45 1.36 1.11 1.00 0.90 0.78 0.73 0.70 0.63 0.63 0.59 0.55 0.63 0.72 0.73
0.76 0.80 1.11 0.97 0.88 0.99 0.96 0.94 0.94 0.95 0.97 1.05 1.17 1.08 0.94 0.86 1.00 0.97 0.97 1.05 1.07 1.11 1.10 0.99 0.98 1.00 1.02 0.96 1.01 1.09 1.03 1.02 1.02 1.04 1.04 1.07 1.13 1.09 1.09 1.08 1.13 1.20 1.20 1.25 1.29 1.33 1.32 1.43 1.52 1.64 1.68 1.54 1.53 1.57 1.70 1.73 1.72 1.74 1.70 1.72 1.71 1.73 1.70 1.70 1.69 1.65 1.61 1.59 1.59 1.61 1.52 1.48 1.40 1.27 1.08 1.03 0.87 0.75 0.68 0.65 0.63 0.63 0.64 0.60 0.59 0.70 0.75
0.67 0.78 1.01 1.02 1.01 0.94 0.97 0.96 1.04 1.10 1.17 1.18 1.11 1.13 1.08 1.10 1.23 1.14 1.06 1.11 1.09 1.12 1.06 1.05 1.04 1.02 0.99 0.93 0.95 1.07 1.03 0.99 0.99 0.99 0.96 0.96 1.05 1.04 1.00 1.05 0.98 1.13 1.19 1.20 1.24 1.30 1.33 1.41 1.49 1.54 1.60 1.54 1.62 1.64 1.69 1.72 1.70 1.73 1.68 1.69 1.68 1.68 1.71 1.69 1.64 1.60 1.55 1.58 1.55 1.50 1.51 1.38 1.33 1.13 1.05 0.97 0.79 0.70 0.61 0.55 0.51 0.54 0.63 0.64 0.59 0.66 0.75
0.84 0.99 1.03 1.02 0.99 0.99 1.01 1.04 1.17 1.08 1.06 1.11 1.06 1.07 1.16 1.32 1.29 1.23 1.12 1.13 1.08 1.05 1.00 1.01 0.99 0.94 0.92 0.89 0.93 0.99 0.98 0.97 0.95 0.95 0.93 0.90 0.96 0.94 0.92 0.88 0.99 0.97 1.11 1.17 1.22 1.27 1.33 1.42 1.48 1.49 1.45 1.49 1.64 1.70 1.72 1.75 1.72 1.71 1.69 1.69 1.70 1.69 1.69 1.65 1.56 1.53 1.51 1.57 1.48 1.48 1.36 1.30 1.16 1.07 1.00 0.87 0.75 0.67 0.63 0.57 0.49 0.48 0.55 0.55 0.56 0.61 0.66
0.77 0.79 0.94 0.94 0.76 0.75 0.81 0.92 1.06 1.10 1.12 1.13 1.19 1.25 1.18 1.16 1.11 1.10 1.03 1.02 1.04 1.04 1.04 1.01 0.92 0.88 0.85 0.84 0.88 0.89 0.88 0.89 0.89 0.89 0.84 0.85 0.88 0.89 0.94 0.95 1.00 0.93 1.02 1.11 1.19 1.24 1.31 1.41 1.45 1.47 1.50 1.54 1.60 1.66 1.71 1.74 1.75 1.70 1.70 1.69 1.69 1.67 1.65 1.56 1.51 1.44 1.45 1.50 1.51 1.51 1.32 1.21 1.09 1.00 0.98 0.90 0.79 0.66 0.56 0.46 0.40 0.40 0.39 0.38 0.44 0.49 0.59
0.79 0.86 1.02 1.06 0.91 0.89 0.93 0.95 1.02 1.06 1.08 1.07 1.06 1.09 1.15 1.16 1.15 1.09 1.05 1.01 0.98 0.94 0.94 0.94 0.90 0.86 0.84 0.83 0.85 0.80 0.82 0.85 0.87 0.82 0.79 0.80 0.89 0.84 0.94 0.95 0.99 0.98 1.02 1.02 1.11 1.19 1.29 1.41 1.46 1.47 1.52 1.52 1.56 1.62 1.66 1.72 1.79 1.74 1.74 1.69 1.67 1.61 1.55 1.48 1.46 1.44 1.48 1.49 1.51 1.48 1.26 1.14 1.05 0.99 0.90 0.81 0.73 0.65 0.53 0.42 0.36 0.37 0.37 0.41 0.43 0.45 0.52
0.92 1.02 1.06 1.01 0.93 0.90 0.95 0.96 0.95 0.97 0.99 0.96 0.98 1.02 1.04 1.00 1.01 1.01 0.99 1.00 0.96 0.96 0.98 0.91 0.86 0.86 0.86 0.85 0.86 0.83 0.84 0.87 0.84 0.79 0.80 0.90 0.93 0.94 0.93 0.97 0.97 0.97 0.94 1.00 1.02 1.13 1.34 1.40 1.46 1.48 1.49 1.52 1.56 1.62 1.68 1.76 1.82 1.81 1.77 1.71 1.60 1.60 1.51 1.50 1.48 1.46 1.49 1.51 1.47 1.37 1.22 1.15 1.05 0.93 0.78 0.68 0.64 0.57 0.46 0.39 0.40 0.42 0.44 0.43 0.43 0.43 0.46
0.92 1.04 1.04 1.01 1.01 0.97 0.94 0.91 0.88 0.90 0.91 0.92 0.91 0.97 1.00 0.99 1.00 1.02 0.97 0.96 0.96 0.93 0.93 0.96 0.92 0.89 0.94 0.89 0.92 0.89 0.87 0.90 0.87 0.84 0.85 0.89 0.89 0.95 0.95 0.91 0.93 0.92 0.99 0.98 0.94 1.01 1.15 1.34 1.39 1.50 1.47 1.53 1.56 1.64 1.71 1.80 1.83 1.80 1.77 1.68 1.62 1.60 1.57 1.52 1.51 1.49 1.51 1.51 1.44 1.32 1.24 1.17 1.05 0.89 0.77 0.67 0.56 0.52 0.53 0.44 0.50 0.54 0.57 0.54 0.50 0.50 0.47
1.04 1.11 1.10 1.08 1.03 0.98 0.95 0.95 0.97 0.98 0.99 1.00 0.99 0.98 0.97 0.95 0.98 1.04 1.04 0.99 0.94 0.95 0.99 0.99 0.93 0.94 1.03 0.99 0.98 0.96 0.95 0.90 0.92 0.93 0.89 0.86 0.89 0.95 0.93 0.89 0.91 0.93 0.97 1.01 1.01 0.99 1.06 1.21 1.35 1.43 1.49 1.52 1.57 1.62 1.72 1.78 1.80 1.77 1.71 1.64 1.63 1.63 1.59 1.56 1.54 1.52 1.54 1.50 1.38 1.33 1.27 1.17 1.01 0.87 0.76 0.72 0.66 0.60 0.53 0.50 0.55 0.58 0.62 0.61 0.57 0.57 0.49
1.03 1.03 1.01 0.94 0.90 0.83 0.85 0.84 0.87 0.96 0.99 1.00 0.96 0.90 0.87 0.90 1.08 1.05 1.05 1.02 0.98 0.95 0.93 0.93 0.92 0.92 1.01 1.03 1.01 1.02 0.92 0.90 0.89 0.87 0.89 0.89 0.88 0.87 0.94 0.96 0.95 0.94 0.94 1.03 1.05 1.06 1.03 1.08 1.22 1.30 1.39 1.50 1.56 1.63 1.69 1.76 1.73 1.70 1.65 1.62 1.65 1.66 1.65 1.63 1.59 1.58 1.55 1.51 1.41 1.35 1.28 1.14 0.98 0.83 0.80 0.81 0.75 0.64 0.58 0.56 0.58 0.56 0.56 0.63 0.60 0.60 0.50
1.03 0.99 0.95 0.83 0.78 0.81 0.83 0.91 0.96 1.04 1.07 1.06 1.03 0.98 1.01 1.06 1.07 1.09 1.10 1.04 1.04 1.04 0.98 0.91 0.87 0.88 0.85 0.92 0.94 0.92 0.86 0.82 0.79 0.85 0.84 0.87 0.86 0.91 0.95 0.98 0.98 0.97 0.98 0.98 1.04 1.10 1.08 1.07 1.15 1.23 1.31 1.50 1.62 1.63 1.66 1.70 1.68 1.67 1.68 1.70 1.69 1.66 1.64 1.63 1.62 1.61 1.57 1.50 1.46 1.38 1.28 1.12 0.99 0.91 0.86 0.76 0.71 0.69 0.69 0.70 0.71 0.61 0.62 0.65 0.60 0.59 0.57
0.95 0.96 0.99 0.99 1.01 1.03 1.06 1.06 1.06 1.05 1.03 1.02 1.00 0.95 0.95 1.00 0.98 0.94 1.00 0.94 0.97 1.04 0.96 0.88 0.84 0.86 0.82 0.83 0.84 0.78 0.74 0.79 0.78 0.77 0.79 0.84 0.93 0.96 0.99 1.01 1.00 0.99 0.98 1.00 1.07 1.16 1.18 1.15 1.18 1.20 1.30 1.48 1.59 1.68 1.63 1.64 1.64 1.66 1.69 1.71 1.69 1.65 1.64 1.65 1.65 1.64 1.59 1.52 1.49 1.41 1.31 1.11 0.99 0.94 0.86 0.75 0.71 0.72 0.65 0.60 0.64 0.72 0.68 0.64 0.58 0.61 0.62
0.92 1.02 1.07 1.03 1.05 1.10 1.04 1.00 0.99 0.98 0.97 0.97 0.96 0.90 0.86 0.81 0.78 0.86 0.93 0.90 0.85 0.86 0.85 0.82 0.80 0.79 0.77 0.73 0.74 0.70 0.73 0.72 0.77 0.79 0.86 0.89 0.93 0.98 0.99 1.02 1.01 1.01 1.01 1.00 1.08 1.15 1.19 1.24 1.26 1.23 1.33 1.49 1.57 1.63 1.62 1.61 1.63 1.66 1.67 1.69 1.69 1.67 1.66 1.68 1.68 1.64 1.58 1.50 1.47 1.41 1.29 1.10 1.03 0.96 0.85 0.75 0.70 0.73 0.68 0.67 0.59 0.54 0.61 0.58 0.62 0.62 0.58
0.97 0.96 1.01 1.04 1.04 1.02 0.99 0.96 0.95 0.97 0.92 0.89 0.89 0.88 0.83 0.83 0.86 0.89 0.91 0.91 0.92 0.88 0.86 0.82 0.82 0.77 0.75 0.73 0.71 0.73 0.75 0.78 0.80 0.85 0.86 0.92 0.95 1.02 1.05 1.05 0.97 0.92 0.92 0.95 1.02 1.06 1.06 1.13 1.26 1.36 1.47 1.56 1.63 1.66 1.63 1.59 1.61 1.64 1.65 1.66 1.67 1.67 1.67 1.68 1.67 1.61 1.54 1.48 1.44 1.37 1.21 1.09 1.03 0.95 0.84 0.75 0.67 0.66 0.67 0.63 0.56 0.60 0.60 0.63 0.66 0.62 0.59
0.98 0.92 0.94 0.92 0.95 0.92 0.94 0.93 0.84 0.86 0.88 0.88 0.84 0.81 0.86 0.83 0.86 0.86 0.86 0.93 0.91 0.80 0.85 0.82 0.81 0.74 0.75 0.71 0.74 0.74 0.76 0.80 0.82 0.85 0.88 0.94 1.00 1.02 1.03 1.03 1.02 1.02 1.02 1.03 1.05 1.10 1.13 1.14 1.16 1.33 1.47 1.51 1.56 1.58 1.60 1.58 1.57 1.57 1.58 1.62 1.64 1.64 1.65 1.66 1.65 1.58 1.55 1.50 1.43 1.31 1.15 1.09 1.03 0.95 0.84 0.77 0.67 0.60 0.66 0.60 0.55 0.64 0.67 0.63 0.55 0.49 0.48
0.84 0.86 0.87 0.86 0.89 0.89 0.92 0.92 0.86 0.87 0.93 0.87 0.88 0.92 0.97 0.94 0.88 0.89 0.87 0.77 0.88 0.88 0.87 0.87 0.81 0.80 0.77 0.76 0.73 0.77 0.78 0.80 0.83 0.86 0.90 0.93 0.95 0.96 0.99 1.01 1.04 1.04 1.04 1.07 1.09 1.12 1.13 1.12 1.18 1.34 1.40 1.49 1.56 1.61 1.63 1.62 1.58 1.57 1.60 1.64 1.65 1.66 1.64 1.64 1.61 1.56 1.54 1.49 1.40 1.25 1.14 1.12 1.06 0.94 0.86 0.78 0.69 0.65 0.65 0.61 0.62 0.60 0.64 0.64 0.52 0.48 0.38
0.84 0.86 0.93 0.99 0.92 0.83 0.83 0.94 0.96 0.95 0.94 0.85 0.91 1.06 1.02 0.99 0.96 0.96 0.92 0.87 0.85 0.86 0.91 0.87 0.86 0.78 0.78 0.79 0.79 0.78 0.80 0.78 0.78 0.82 0.86 0.88 0.91 0.95 1.01 1.02 1.01 1.01 1.02 1.06 1.08 1.10 1.13 1.17 1.22 1.30 1.40 1.44 1.49 1.56 1.61 1.64 1.65 1.65 1.65 1.68 1.69 1.64 1.61 1.61 1.57 1.53 1.49 1.44 1.34 1.26 1.19 1.11 1.09 0.96 0.89 0.75 0.69 0.60 0.66 0.65 0.61 0.63 0.64 0.58 0.52 0.39 0.31
0.88 0.90 0.94 0.99 1.05 1.00 0.92 0.90 0.95 0.97 0.95 0.89 0.85 0.95 0.96 0.99 1.00 1.02 1.05 0.88 0.82 0.88 0.92 0.88 0.85 0.84 0.79 0.78 0.78 0.79 0.79 0.80 0.82 0.83 0.85 0.87 0.92 0.96 0.98 0.96 0.97 0.99 0.99 1.02 1.08 1.12 1.17 1.23 1.29 1.30 1.37 1.43 1.52 1.62 1.68 1.71 1.64 1.68 1.71 1.68 1.66 1.62 1.60 1.57 1.51 1.49 1.45 1.41 1.35 1.27 1.20 1.08 1.09 0.99 0.91 0.76 0.66 0.61 0.66 0.62 0.64 0.65 0.65 0.56 0.48 0.35 0.37
0.85 0.84 0.85 0.88 0.95 0.97 0.96 0.92 0.91 0.95 0.97 0.96 0.90 0.90 0.95 1.03 1.08 1.14 1.03 1.00 1.00 0.95 0.89 0.90 0.89 0.84 0.80 0.77 0.78 0.81 0.82 0.83 0.83 0.84 0.87 0.92 0.96 1.00 0.99 0.95 0.93 0.91 0.93 0.96 1.08 1.16 1.22 1.27 1.32 1.31 1.30 1.34 1.41 1.51 1.62 1.73 1.71 1.68 1.69 1.69 1.65 1.64 1.63 1.57 1.52 1.49 1.47 1.42 1.36 1.31 1.23 1.10 1.09 0.97 0.88 0.74 0.65 0.62 0.64 0.61 0.63 0.66 0.65 0.58 0.48 0.37 0.43
0.75 0.75 0.79 0.83 0.86 0.91 0.96 0.97 0.95 0.92 0.96 0.98 0.96 0.93 0.99 1.02 1.04 1.08 1.05 0.99 0.96 0.93 0.94 0.93 0.86 0.81 0.79 0.82 0.82 0.84 0.84 0.87 0.89 0.91 0.92 0.96 0.99 0.97 0.96 0.92 0.90 0.90 0.92 0.90 1.07 1.21 1.27 1.32 1.38 1.40 1.39 1.35 1.32 1.39 1.55 1.67 1.71 1.73 1.71 1.70 1.65 1.63 1.61 1.57 1.53 1.45 1.42 1.42 1.39 1.34 1.25 1.13 1.06 0.92 0.84 0.71 0.65 0.61 0.61 0.60 0.59 0.64 0.63 0.63 0.53 0.44 0.45
0.77 0.75 0.78 0.81 0.85 0.88 0.92 0.95 0.97 0.93 0.93 0.97 1.01 1.03 1.03 1.03 1.02 1.03 1.05 1.04 1.02 1.02 1.01 0.96 0.90 0.84 0.82 0.83 0.83 0.84 0.88 0.93 0.96 0.97 0.97 0.95 0.95 0.92 0.90 0.88 0.87 0.90 0.90 0.95 1.08 1.15 1.19 1.28 1.39 1.43 1.42 1.41 1.39 1.38 1.46 1.61 1.68 1.70 1.66 1.68 1.69 1.67 1.63 1.56 1.49 1.42 1.39 1.41 1.40 1.33 1.23 1.12 1.01 0.88 0.82 0.69 0.66 0.61 0.60 0.60 0.61 0.62 0.68 0.64 0.57 0.56 0.59
0.76 0.78 0.81 0.84 0.88 0.94 0.99 0.99 0.97 0.95 0.95 0.96 1.02 1.07 1.08 1.06 1.11 1.11 1.08 1.03 1.08 1.10 1.06 0.99 0.93 0.87 0.84 0.84 0.86 0.90 0.93 0.96 0.97 0.95 0.93 0.91 0.91 0.86 0.85 0.88 0.93 0.99 1.06 1.17 1.20 1.20 1.22 1.24 1.27 1.28 1.34 1.41 1.44 1.43 1.47 1.53 1.59 1.62 1.65 1.70 1.65 1.64 1.63 1.54 1.42 1.37 1.39 1.42 1.40 1.31 1.20 1.10 0.98 0.89 0.79 0.68 0.67 0.60 0.64 0.60 0.57 0.65 0.68 0.60 0.57 0.57 0.60
0.76 0.76 0.80 0.86 0.94 1.01 1.01 0.99 0.99 0.99 1.00 1.01 1.02 1.06 1.15 1.16 1.14 1.08 1.05 1.06 1.10 1.09 1.03 0.99 0.92 0.86 0.89 0.90 0.92 0.92 0.95 0.97 0.96 0.93 0.91 0.91 0.89 0.88 0.89 0.93 1.02 1.10 1.18 1.22 1.24 1.24 1.28 1.33 1.34 1.31 1.26 1.31 1.39 1.44 1.49 1.52 1.54 1.62 1.69 1.67 1.59 1.53 1.55 1.49 1.41 1.37 1.39 1.40 1.36 1.27 1.16 1.05 0.97 0.90 0.77 0.69 0.68 0.60 0.62 0.61 0.53 0.65 0.63 0.60 0.60 0.60 0.61
0.76 0.80 0.87 0.93 0.99 1.01 1.01 1.01 1.01 1.02 1.04 1.04 1.06 1.10 1.15 1.14 1.12 0.99 0.96 0.99 1.04 1.04 1.03 1.00 0.93 0.91 0.93 0.96 0.98 0.99 0.99 0.98 0.98 0.96 0.97 0.95 0.91 0.89 0.86 0.84 0.99 1.06 1.11 1.16 1.23 1.26 1.25 1.30 1.34 1.33 1.35 1.37 1.40 1.45 1.49 1.54 1.55 1.54 1.57 1.62 1.63 1.59 1.59 1.51 1.43 1.39 1.35 1.34 1.31 1.21 1.10 1.02 0.96 0.90 0.77 0.70 0.70 0.63 0.63 0.61 0.53 0.61 0.62 0.60 0.58 0.59 0.51
0.77 0.84 0.89 0.94 0.98 1.00 0.99 0.99 1.01 1.02 1.05 1.06 1.10 1.15 1.17 1.15 1.04 1.00 1.04 1.05 1.04 1.02 0.98 0.98 1.00 0.99 1.00 1.01 1.03 1.04 1.05 1.04 1.02 1.00 0.99 0.95 0.91 0.90 0.85 0.88 1.03 1.08 1.12 1.15 1.17 1.18 1.19 1.20 1.26 1.35 1.41 1.41 1.40 1.43 1.47 1.50 1.52 1.52 1.54 1.61 1.67 1.66 1.63 1.58 1.48 1.38 1.34 1.33 1.28 1.19 1.09 1.01 0.95 0.90 0.78 0.72 0.73 0.65 0.64 0.61 0.57 0.57 0.64 0.62 0.65 0.59 0.54
0.81 0.83 0.89 0.95 0.98 0.97 0.98 0.98 0.99 1.00 1.02 1.08 1.12 1.15 1.15 1.12 1.11 1.11 1.09 1.06 1.03 1.01 1.00 1.01 1.03 1.05 1.07 1.07 1.07 1.03 1.00 1.00 0.96 0.96 0.96 0.97 1.00 1.01 0.98 1.00 1.10 1.17 1.20 1.20 1.19 1.18 1.20 1.25 1.27 1.29 1.35 1.41 1.45 1.47 1.47 1.46 1.47 1.48 1.52 1.59 1.61 1.61 1.61 1.62 1.55 1.44 1.33 1.29 1.24 1.15 1.04 0.99 0.95 0.89 0.79 0.73 0.73 0.66 0.65 0.60 0.57 0.51 0.66 0.60 0.66 0.58 0.58
0.87 0.93 0.96 0.97 0.99 1.00 1.01 1.03 1.03 1.01 1.02 1.08 1.14 1.17 1.14 1.13 1.13 1.10 1.06 1.03 1.00 1.00 0.98 0.99 1.01 1.03 1.05 1.05 1.02 0.97 0.96 0.97 0.94 0.95 0.93 0.94 1.00 1.09 1.19 1.20 1.20 1.21 1.21 1.21 1.20 1.18 1.18 1.21 1.28 1.34 1.37 1.40 1.43 1.46 1.46 1.45 1.46 1.48 1.51 1.49 1.50 1.55 1.59 1.57 1.51 1.40 1.31 1.26 1.22 1.13 1.02 0.98 0.95 0.90 0.82 0.76 0.74 0.67 0.66 0.58 0.57 0.53 0.65 0.61 0.65 0.60 0.59
1.00 1.02 1.01 1.01 1.05 1.07 1.06 1.06 1.05 1.05 1.09 1.17 1.20 1.16 1.16 1.14 1.12 1.10 1.07 1.05 1.03 1.03 1.05 1.05 1.04 1.04 1.05 1.05 1.02 1.00 1.00 1.01 1.03 1.07 1.01 1.01 0.99 1.03 1.20 1.24 1.23 1.22 1.22 1.23 1.22 1.20 1.19 1.20 1.22 1.28 1.36 1.42 1.42 1.43 1.44 1.45 1.46 1.47 1.48 1.48 1.53 1.60 1.62 1.58 1.46 1.38 1.31 1.27 1.23 1.12 1.01 0.97 0.95 0.92 0.87 0.79 0.76 0.69 0.66 0.58 0.61 0.58 0.65 0.62 0.62 0.58 0.56
1.05 1.07 1.07 1.09 1.09 1.10 1.16 1.17 1.21 1.19 1.16 1.12 1.12 1.10 1.09 1.09 1.12 1.12 1.13 1.13 1.10 1.09 1.08 1.07 1.04 1.03 1.03 1.02 1.03 1.06 1.08 1.12 1.16 1.20 1.20 1.19 1.12 1.15 1.23 1.24 1.25 1.26 1.27 1.27 1.26 1.25 1.25 1.25 1.23 1.23 1.23 1.26 1.35 1.41 1.41 1.41 1.43 1.47 1.50 1.48 1.50 1.57 1.65 1.60 1.45 1.35 1.28 1.25 1.21 1.09 0.99 0.98 0.95 0.93 0.88 0.79 0.75 0.73 0.68 0.63 0.64 0.62 0.65 0.62 0.59 0.57 0.58
1.09 1.17 1.27 1.22 1.25 1.28 1.25 1.20 1.18 1.14 1.10 1.02 0.97 0.97 1.02 1.05 1.05 1.06 1.07 1.08 1.07 1.07 1.06 1.06 1.06 1.08 1.11 1.12 1.10 1.09 1.09 1.10 1.12 1.16 1.18 1.23 1.26 1.25 1.24 1.23 1.22 1.22 1.24 1.26 1.28 1.29 1.28 1.28 1.27 1.26 1.27 1.29 1.30 1.33 1.37 1.37 1.37 1.39 1.42 1.45 1.50 1.53 1.55 1.49 1.39 1.34 1.26 1.24 1.22 1.09 1.00 0.97 0.95 0.93 0.86 0.79 0.76 0.76 0.72 0.67 0.65 0.64 0.63 0.59 0.57 0.59 0.58
1.26 1.28 1.27 1.26 1.23 1.20 1.17 1.11 1.05 1.01 0.97 0.96 0.96 0.96 0.99 1.04 1.02 1.00 0.99 1.00 1.04 1.06 1.05 1.07 1.10 1.13 1.16 1.20 1.25 1.26 1.21 1.10 0.94 0.98 1.11 1.11 1.12 1.11 1.11 1.11 1.12 1.13 1.16 1.17 1.18 1.21 1.23 1.24 1.25 1.26 1.25 1.26 1.29 1.31 1.32 1.36 1.38 1.36 1.38 1.44 1.45 1.44 1.45 1.44 1.37 1.35 1.33 1.29 1.19 1.08 1.00 0.96 0.95 0.93 0.85 0.81 0.77 0.79 0.75 0.69 0.68 0.65 0.62 0.58 0.55 0.59 0.58
1.32 1.27 1.25 1.21 1.17 1.14 1.10 1.06 0.99 0.97 0.99 1.01 0.97 0.98 0.99 0.96 0.94 0.97 1.02 1.05 1.09 1.10 1.09 1.08 1.09 1.13 1.16 1.18 1.17 1.16 1.16 1.17 1.09 1.04 1.14 1.15 1.12 1.09 1.10 1.11 1.12 1.13 1.14 1.15 1.18 1.23 1.27 1.28 1.29 1.29 1.30 1.30 1.31 1.31 1.32 1.34 1.34 1.35 1.36 1.38 1.41 1.38 1.37 1.35 1.34 1.31 1.24 1.19 1.17 1.07 0.98 0.93 0.93 0.93 0.86 0.85 0.81 0.81 0.77 0.71 0.70 0.65 0.60 0.57 0.56 0.59 0.58
1.26 1.23 1.17 1.13 1.10 1.05 1.00 0.98 0.98 1.01 1.05 1.01 1.01 0.99 1.01 0.98 0.96 1.01 1.04 1.03 1.06 1.05 1.02 1.06 1.12 1.16 1.15 1.14 1.13 1.13 1.13 1.15 1.19 1.20 1.18 1.15 1.11 1.08 1.05 1.05 1.07 1.10 1.13 1.15 1.16 1.18 1.23 1.27 1.28 1.28 1.30 1.32 1.33 1.33 1.34 1.35 1.35 1.33 1.32 1.32 1.32 1.33 1.35 1.35 1.32 1.27 1.21 1.19 1.16 1.06 0.97 0.91 0.91 0.95 0.90 0.88 0.84 0.83 0.78 0.75 0.73 0.66 0.60 0.58 0.57 0.57 0.56
1.15 1.12 1.10 1.09 1.09 1.07 1.04 1.07 1.06 1.07 1.04 1.03 1.02 1.02 0.99 0.98 0.98 0.98 0.98 0.96 0.94 0.92 0.91 0.97 1.04 1.11 1.10 1.09 1.09 1.10 1.12 1.15 1.16 1.15 1.12 1.08 1.06 1.04 1.02 1.03 1.06 1.11 1.14 1.18 1.20 1.23 1.26 1.30 1.32 1.37 1.38 1.39 1.36 1.34 1.34 1.36 1.36 1.34 1.31 1.28 1.29 1.30 1.31 1.34 1.35 1.33 1.29 1.19 1.13 1.06 0.98 0.90 0.89 0.95 0.94 0.91 0.86 0.84 0.79 0.77 0.73 0.67 0.62 0.59 0.56 0.56 0.56
1.16 1.12 1.07 1.07 1.12 1.10 1.09 1.08 1.05 1.07 1.04 1.04 1.01 1.00 0.97 0.94 0.88 0.89 0.94 0.95 0.92 0.88 0.87 0.84 0.85 0.97 1.03 1.06 1.07 1.09 1.11 1.11 1.10 1.09 1.06 1.02 0.99 0.98 1.00 1.01 1.04 1.09 1.14 1.18 1.22 1.24 1.28 1.33 1.38 1.41 1.42 1.41 1.41 1.40 1.38 1.37 1.38 1.37 1.35 1.31 1.29 1.31 1.33 1.41 1.47 1.39 1.28 1.19 1.11 1.07 1.02 0.92 0.89 0.95 0.95 0.94 0.88 0.86 0.80 0.77 0.74 0.68 0.63 0.59 0.57 0.56 0.54
Wind_Speed
10 10 9 7 9 11 7 7 8 7 6 8 11 11 6 6 9 6 4 8 8 6 6 7 5 4 4 4 3 2 1 0 1 2 3 2 3 4 5 4 3 3 3 3 3 4 3 3 4 4 4 4 4 5 5 4 3 3 3 3 3 4 4 4 5 5 6 7 8 9 10 11 12 12 13 14 14 14 13 12 12 12 12 12 12 11 12
11 9 11 9 9 9 6 6 7 4 4 8 11 8 5 4 5 4 4 7 7 6 6 7 3 1 2 3 3 3 2 2 2 2 2 2 3 4 6 5 4 3 3 3 3 4 4 4 4 4 5 5 5 5 5 5 4 4 4 4 3 4 4 4 4 5 6 7 8 9 10 11 12 13 14 14 14 14 13 12 12 12 12 12 12 12 12
11 8 9 9 8 7 6 7 7 3 1 5 7 5 4 4 3 3 3 5 5 3 4 4 3 2 2 4 4 4 4 4 4 3 3 5 5 6 7 6 5 4 4 3 3 4 4 4 5 5 6 6 6 6 6 6 6 6 5 5 5 4 4 5 5 5 6 7 8 9 11 12 13 14 14 14 14 14 13 13 12 12 12 12 12 12 12
11 10 9 8 8 7 6 6 6 1 3 1 3 2 1 1 1 0 3 5 4 4 3 4 5 5 5 5 4 5 4 4 5 5 5 7 8 9 9 8 6 5 4 3 3 3 3 4 5 5 6 6 6 7 7 7 7 7 7 6 6 6 6 6 6 6 7 8 8 10 11 12 13 14 14 14 15 14 13 13 13 12 12 12 12 13 12
10 11 10 8 9 8 6 4 3 2 2 1 2 2 0 0 2 2 2 5 9 7 7 8 6 5 5 5 5 5 5 5 6 6 8 10 10 10 10 8 6 5 3 3 3 3 4 4 5 6 6 7 7 7 7 8 8 8 8 8 7 7 7 8 7 7 8 8 9 10 11 12 13 14 15 15 15 14 13 13 13 12 13 12 12 13 12
8 9 9 9 9 8 5 3 3 4 4 2 2 2 0 1 5 6 4 5 7 6 6 6 5 4 4 4 4 5 5 6 6 8 10 10 11 12 10 7 7 8 7 8 8 7 6 6 6 6 7 7 7 8 8 8 8 8 9 9 8 8 9 9 9 9 9 9 9 10 10 12 13 15 15 15 14 13 13 13 13 13 13 13 12 13 12
9 8 9 10 10 8 5 3 3 5 5 4 2 3 1 1 4 6 4 4 5 6 4 3 4 5 4 4 4 4 4 5 6 8 9 9 11 11 9 8 9 10 9 11 11 9 7 7 7 7 7 7 7 8 8 9 9 9 9 10 10 10 10 9 9 10 10 10 10 10 10 11 13 14 15 15 14 13 12 13 13 13 13 12 12 12 12
9 8 8 8 9 9 8 5 4 4 5 5 4 3 2 2 3 4 4 3 3 3 3 3 4 5 4 3 3 4 4 4 6 7 7 9 11 10 9 10 11 11 11 11 11 10 8 8 8 7 7 7 8 8 9 9 9 9 10 10 10 10 10 10 10 10 10 10 10 10 10 11 13 15 16 15 13 12 12 12 13 13 13 12 12 13 13
9 8 7 7 8 10 10 8 7 6 6 6 5 3 2 3 3 3 3 3 3 2 3 4 3 2 2 2 3 4 3 4 6 6 6 7 9 9 10 11 12 12 12 12 11 10 9 9 8 8 7 8 8 9 9 9 9 9 10 10 10 10 11 11 10 10 10 10 10 10 11 11 13 15 15 14 12 12 12 12 13 13 12 12 13 13 14
9 9 9 8 8 9 9 9 9 8 8 8 6 4 3 2 2 3 3 3 3 2 3 5 3 0 0 1 3 3 3 4 6 7 7 7 7 8 10 12 13 13 14 13 11 11 10 10 9 9 8 8 9 9 9 9 9 9 9 10 10 10 10 10 11 11 10 10 10 10 11 11 13 14 14 12 11 11 12 12 13 13 12 12 13 14 14
10 10 10 8 7 7 6 8 9 8 7 8 7 4 3 2 1 2 3 3 2 2 4 4 2 1 1 2 3 3 3 4 5 6 8 10 10 10 12 13 13 13 14 13 12 12 12 11 11 10 9 8 9 10 10 9 9 9 9 9 9 9 10 10 10 11 10 10 10 10 11 11 13 14 13 12 11 11 12 12 12 12 13 12 13 14 15
9 11 10 8 7 7 6 6 7 7 7 9 8 6 5 4 2 2 2 3 2 2 2 2 1 1 2 3 3 2 2 4 5 6 8 10 11 12 13 13 13 13 14 13 13 13 12 12 12 10 8 8 9 10 10 9 9 9 9 9 9 9 10 10 10 10 10 10 10 10 10 11 12 13 12 11 11 11 12 12 12 13 13 12 13 14 15
9 9 10 9 8 8 6 3 3 4 7 8 7 6 5 4 2 2 2 3 3 2 2 1 1 1 2 2 2 2 2 3 5 7 9 10 12 12 13 13 13 13 14 13 13 13 13 13 12 11 10 9 10 10 9 10 10 10 9 9 9 9 10 10 10 9 9 9 10 10 10 11 11 11 11 11 11 11 12 12 13 13 13 12 13 14 14
8 8 9 9 8 8 7 5 3 4 6 8 6 4 5 4 3 3 3 3 3 3 2 2 1 0 1 2 2 2 3 4 6 9 10 10 11 12 12 13 13 14 14 14 14 14 13 13 12 12 12 12 10 9 9 9 10 10 9 9 9 9 9 10 9 9 9 9 9 9 9 10 10 10 10 10 11 11 12 13 13 12 12 12 13 14 14
8 9 9 8 8 7 5 5 5 4 5 8 7 5 5 4 3 3 2 3 3 2 2 1 0 1 3 4 3 3 5 6 7 9 11 11 11 12 12 13 14 14 14 14 14 14 13 13 13 13 13 12 11 10 10 10 10 10 10 9 9 8 9 9 8 8 8 8 8 8 9 9 9 9 10 10 11 12 12 12 12 12 12 13 13 14 15
8 9 9 8 7 5 3 4 4 4 6 7 7 6 5 4 3 2 2 2 2 1 1 1 1 2 3 3 4 4 6 7 8 10 11 11 11 13 13 14 14 14 14 14 14 14 14 14 14 14 14 13 11 10 10 10 10 10 9 9 8 8 7 7 7 7 7 8 8 8 8 8 8 9 9 10 11 11 12 12 12 11 12 12 13 14 15
7 7 7 7 6 5 4 4 4 6 7 7 7 6 5 3 3 4 3 2 2 2 2 1 1 2 3 3 3 5 6 8 9 11 11 11 13 13 14 14 15 15 15 14 14 14 14 14 14 13 13 12 11 11 10 10 10 10 9 9 8 7 6 6 6 6 7 7 7 7 7 7 7 9 9 9 10 11 11 11 12 12 12 12 13 14 15
7 5 6 6 6 5 5 5 4 5 7 7 7 7 6 4 5 5 4 4 4 3 2 1 1 3 3 4 5 7 8 9 11 12 13 14 15 15 15 15 16 15 15 15 14 14 14 14 14 13 13 12 11 11 10 10 10 10 9 8 7 6 5 5 5 6 7 6 5 5 5 6 7 8 8 8 10 11 11 10 11 11 12 12 13 14 14
9 9 8 7 6 6 6 6 6 5 5 5 6 6 5 5 6 5 4 3 3 2 1 2 2 3 4 6 7 8 9 11 12 13 14 15 16 17 17 17 16 16 15 15 14 14 14 14 14 13 12 12 12 11 10 10 10 10 9 8 7 6 5 5 6 6 5 4 4 4 5 6 7 7 7 8 9 10 11 11 11 12 12 13 14 15 15
10 10 9 8 7 8 7 7 7 6 5 4 5 5 5 6 6 5 4 3 2 2 2 3 4 4 6 7 9 9 10 12 13 14 15 16 17 17 17 17 16 16 15 15 15 14 14 14 14 13 13 12 12 11 10 10 10 10 9 8 7 5 4 5 5 4 3 3 3 4 5 7 7 6 7 8 9 10 11 11 11 12 13 13 14 15 16
10 11 11 10 9 10 9 8 8 7 6 6 6 5 6 6 6 5 4 3 3 3 3 5 5 6 7 9 10 10 11 12 14 15 16 17 17 17 17 16 16 16 15 15 15 14 13 13 13 13 13 12 12 11 10 10 10 10 9 8 6 4 3 3 3 2 3 3 3 4 5 6 7 7 8 9 9 10 11 11 11 12 13 13 14 15 15
12 12 13 12 11 10 10 10 9 8 8 7 6 6 6 6 6 5 4 3 4 4 5 5 6 7 8 10 11 11 12 13 14 16 17 17 17 17 17 16 16 16 15 15 15 14 13 13 13 12 12 11 11 11 10 11 11 10 8 6 4 3 3 2 2 2 3 4 4 4 5 6 7 8 9 10 10 11 11 11 12 12 12 13 14 14 14
12 10 11 12 11 10 10 10 9 9 9 8 8 7 7 6 6 6 5 5 5 5 6 6 7 8 9 10 11 12 13 14 15 16 17 17 17 16 16 16 16 16 15 15 15 14 14 13 12 12 11 11 10 10 10 11 11 9 7 5 3 3 2 2 2 3 3 4 4 5 5 6 7 8 9 10 11 11 11 11 11 12 12 13 13 13 13
12 11 10 11 10 10 10 10 10 10 9 9 9 8 8 7 7 6 6 7 7 6 7 7 8 9 10 11 12 13 14 15 16 17 17 17 16 16 16 16 16 16 15 15 15 14 14 13 12 12 11 10 10 10 10 10 9 7 4 3 3 2 3 3 3 3 4 4 5 5 5 7 8 9 9 9 10 10 11 11 11 12 12 13 13 13 12
12 12 11 11 11 11 11 10 10 10 9 10 9 9 8 8 8 7 7 7 7 8 8 8 9 10 11 12 13 14 15 16 17 17 17 16 15 16 16 16 16 16 15 15 15 14 14 13 12 11 10 10 10 10 9 9 7 4 3 3 3 3 3 3 3 4 4 4 5 5 6 7 8 9 9 9 9 9 10 10 11 12 12 13 13 13 12
13 12 12 12 12 12 11 10 10 9 9 8 8 8 8 9 9 8 8 8 8 9 9 9 10 12 12 13 14 15 15 17 17 17 17 16 16 16 16 17 17 16 16 15 15 14 14 13 12 11 11 10 9 9 9 8 6 5 4 4 4 4 4 4 4 4 4 4 5 5 6 7 8 9 9 8 8 8 9 9 10 11 11 12 12 13 12
14 13 13 13 13 12 12 12 11 10 9 9 8 9 9 10 10 9 9 8 9 9 10 10 11 13 13 14 15 16 17 17 17 17 17 17 17 17 17 17 17 17 16 15 15 14 14 13 12 11 11 10 9 9 8 8 7 6 5 5 5 5 5 5 5 5 5 4 5 5 6 7 8 8 8 8 7 8 8 9 9 10 10 10 11 11 11
14 13 13 13 13 13 12 11 11 10 10 10 10 10 11 11 11 10 9 9 9 10 11 12 13 14 15 15 16 17 17 17 17 17 17 18 18 18 17 17 17 17 16 16 15 14 14 13 13 12 11 10 9 9 9 8 7 6 6 6 6 6 5 5 6 5 5 5 5 6 6 7 8 8 8 8 7 8 8 9 9 8 8 9 10 10 10
14 13 12 13 13 12 11 10 10 10 10 10 11 11 11 11 11 10 9 9 10 11 12 13 14 15 16 17 17 17 18 18 18 18 18 18 18 18 17 17 17 17 16 16 15 14 14 14 13 13 12 11 10 10 9 9 7 7 6 6 6 6 6 6 6 6 5 5 5 6 7 7 7 7 7 7 7 7 7 8 9 8 7 8 8 9 9
13 12 12 13 13 12 11 11 11 12 11 11 11 11 11 11 11 10 10 11 12 13 13 14 15 16 17 17 18 18 18 18 19 19 19 18 18 18 17 17 17 16 16 16 15 14 14 14 14 13 12 11 10 10 10 9 8 8 7 7 7 7 7 6 6 6 5 5 6 6 7 7 7 7 7 7 7 7 7 7 8 7 7 8 7 7 8
13 12 12 12 12 13 13 12 12 13 12 12 12 12 12 13 13 12 13 13 14 14 14 15 16 17 17 18 18 19 19 19 19 19 19 18 18 17 17 17 16 16 16 16 16 15 15 14 14 13 12 11 11 11 10 10 9 9 8 8 8 8 7 7 7 6 6 5 6 7 7 8 7 7 7 7 7 6 7 7 7 7 7 7 7 7 7
13 13 13 13 13 13 13 12 13 14 13 13 14 14 13 14 14 14 14 14 14 15 15 16 16 17 18 18 19 19 19 19 19 19 18 18 17 17 17 17 17 16 16 16 16 15 15 15 14 13 12 11 11 11 11 11 10 10 9 9 9 8 8 8 7 6 6 6 6 7 8 8 7 7 7 7 6 6 6 6 6 6 6 6 6 7 8
14 14 15 15 15 14 13 13 14 15 14 14 15 14 14 14 15 14 14 15 15 15 16 16 17 18 18 18 19 19 19 19 18 18 18 17 17 17 17 17 16 16 16 16 16 16 16 15 15 14 13 12 12 12 12 12 11 11 10 10 9 9 9 9 9 7 7 7 7 8 8 7 7 7 7 6 6 6 6 6 6 6 5 5 6 7 6
16 16 15 15 16 16 15 14 14 15 15 15 15 14 14 15 15 15 15 15 16 16 16 16 17 18 18 18 18 18 18 18 18 18 18 18 17 17 17 17 17 16 16 17 16 16 16 15 15 14 13 13 13 12 12 12 12 11 11 11 10 10 10 10 10 9 8 8 8 8 8 8 7 7 7 6 5 5 5 5 5 5 4 5 6 6 4
18 18 17 17 17 17 17 17 16 15 16 16 16 15 15 15 15 14 15 15 15 16 16 17 17 18 18 18 18 18 18 18 18 18 18 18 17 17 17 17 17 17 17 17 17 16 16 16 15 15 14 14 13 13 13 13 12 12 12 12 11 11 10 10 10 10 9 9 8 8 8 8 7 6 6 6 5 5 5 5 4 4 3 4 5 4 2
20 20 19 19 19 19 19 18 17 16 16 16 17 16 14 14 14 15 15 15 16 17 17 18 18 18 18 18 18 18 18 18 18 18 18 18 18 18 18 18 18 18 18 18 17 16 16 16 16 15 15 14 14 14 14 14 14 13 13 12 12 12 11 11 11 10 10 9 8 8 8 8 7 6 6 6 5 5 5 4 4 3 3 4 4 3 2
22 21 21 20 20 20 20 19 19 18 17 17 17 17 15 15 15 16 16 17 17 18 18 18 19 19 19 19 19 19 19 18 18 18 18 18 18 18 18 19 18 18 18 17 17 16 16 16 16 15 15 15 15 15 15 15 15 14 13 13 13 13 12 12 12 11 11 10 9 9 8 8 7 6 6 6 5 5 5 4 4 3 3 3 3 2 1
22 21 21 21 21 21 21 20 20 19 18 18 17 17 17 16 16 17 17 17 18 18 18 19 19 19 19 19 19 19 19 19 19 19 19 19 19 19 19 19 19 19 18 18 17 17 17 17 16 16 15 15 16 16 16 16 15 15 14 14 14 14 13 13 12 12 11 10 9 9 9 8 7 7 6 6 5 5 5 4 4 4 3 2 2 2 1
22 21 22 21 21 21 21 21 20 20 20 19 18 18 17 17 18 18 18 18 18 18 19 19 19 19 19 19 19 19 19 19 19 19 19 19 20 20 20 20 20 19 19 18 18 18 18 18 17 17 16 16 16 16 16 16 16 16 15 15 14 14 14 13 13 13 12 11 10 9 9 9 8 7 7 6 6 5 5 5 4 4 3 2 2 2 2
22 22 22 22 21 21 21 21 20 20 20 20 19 19 19 18 19 19 19 19 19 19 19 20 19 19 19 19 19 19 19 20 20 20 20 20 20 20 20 20 20 19 19 18 18 18 18 18 18 17 17 17 17 16 16 17 17 17 17 16 15 15 15 14 14 13 13 12 11 10 10 9 9 8 7 7 6 6 6 5 5 5 4 3 2 2 3
22 22 22 22 21 21 21 21 20 20 20 20 19 19 19 19 20 20 20 20 20 20 20 20 19 19 19 19 20 20 20 20 20 21 21 21 21 21 20 20 20 20 20 19 19 19 19 19 18 18 18 18 17 17 17 17 17 18 18 17 16 16 16 16 15 14 13 12 12 11 10 10 10 9 8 7 7 6 6 6 6 5 5 3 3 3 3
22 22 22 22 21 21 21 21 20 20 20 20 20 20 20 20 20 20 20 20 21 21 20 20 20 20 20 20 20 21 21 21 21 21 21 21 21 21 21 21 21 21 21 21 20 20 19 19 19 19 18 18 18 18 18 18 18 18 18 18 18 18 17 17 16 15 14 13 13 12 11 11 11 10 9 8 7 7 7 6 6 6 5 4 4 4 4
22 22 22 21 21 21 21 21 20 20 20 21 21 20 20 20 21 21 21 21 21 21 21 21 21 21 21 21 21 21 21 22 22 22 22 22 22 22 22 22 21 21 21 20 20 20 19 19 19 19 19 19 19 18 18 19 19 19 19 19 19 19 18 18 17 15 14 14 14 13 12 12 11 11 10 9 8 8 7 7 7 7 6 5 5 5 5
22 22 21 21 21 20 20 20 20 21 21 21 21 21 21 21 21 21 21 21 21 21 21 22 22 21 21 21 21 21 22 22 22 22 22 22 22 22 22 21 21 21 21 21 20 20 20 20 20 20 20 20 19 19 19 19 20 19 19 20 20 20 19 19 19 17 16 15 15 14 13 13 12 12 11 10 9 8 8 8 8 8 7 6 6 6 6
21 21 21 20 20 20 20 21 21 21 21 21 21 21 21 21 21 21 21 21 22 22 22 22 22 22 22 22 22 22 22 22 22 22 23 23 23 22 22 23 22 22 23 22 22 22 22 22 21 21 21 20 20 20 20 20 20 20 20 21 21 21 22 21 20 18 17 17 16 15 14 14 13 13 12 11 10 9 9 9 9 8 8 7 7 6 7
21 21 21 21 21 20 20 20 20 20 20 20 21 21 21 21 21 21 21 22 22 22 22 22 22 22 22 22 22 22 22 22 22 22 23 23 23 23 24 24 24 24 24 24 23 23 23 23 22 22 22 22 22 22 21 21 21 21 21 21 21 22 23 22 20 19 18 18 17 16 15 14 14 14 13 12 11 10 10 10 9 9 9 8 8 7 8
21 21 21 20 20 20 20 20 20 20 20 20 21 21 21 21 21 22 22 22 22 22 22 22 22 22 22 22 22 22 22 22 22 22 22 23 23 23 24 24 25 25 25 25 25 24 25 25 24 24 23 23 23 22 22 21 22 22 22 22 22 22 23 22 21 20 19 18 18 17 16 15 15 15 14 13 12 11 10 10 10 10 10 9 9 8 9
21 20 20 20 20 20 20 20 20 20 20 20 20 21 21 21 21 22 22 22 22 22 22 22 22 22 22 22 22 22 22 22 22 22 23 23 23 24 24 25 25 26 26 26 26 26 26 26 26 25 24 24 24 23 23 22 22 23 23 23 22 23 23 23 22 22 21 21 20 19 17 16 16 15 15 14 13 12 11 11 11 11 11 10 10 10 10
20 19 20 20 20 20 20 20 20 20 20 20 20 21 21 21 22 22 21 21 21 21 22 22 22 22 22 22 22 22 22 23 23 23 24 24 24 25 25 26 26 27 27 27 27 27 27 27 26 25 25 24 24 24 24 24 23 23 23 23 23 23 23 23 23 23 22 22 22 20 19 18 17 16 16 15 14 13 13 12 12 12 12 11 11 11 11
19 19 19 19 19 20 20 20 20 20 20 20 20 20 21 21 21 21 21 21 21 21 22 22 22 21 22 22 22 22 23 23 23 23 24 24 25 26 26 27 27 27 28 27 27 27 27 27 27 26 25 25 25 25 25 24 24 24 24 24 24 24 24 24 25 24 23 23 22 22 21 19 18 18 17 16 15 14 14 13 13 13 13 13 12 12 12
19 19 19 19 19 19 19 19 19 19 19 20 20 20 20 21 21 21 21 21 21 22 22 22 21 21 22 22 22 22 23 23 23 24 24 25 25 26 27 27 28 28 28 28 27 27 27 27 26 26 25 25 25 25 25 25 25 24 24 25 26 26 26 26 26 26 25 24 23 23 22 21 20 19 18 17 16 15 15 14 14 14 14 14 13 13 13
18 18 18 18 18 18 18 18 18 19 19 19 19 19 20 20 21 21 21 21 21 21 22 21 22 22 22 22 23 23 23 23 24 24 25 25 26 26 26 27 28 28 28 27 27 27 27 27 27 26 26 26 26 26 26 26 26 25 25 26 27 27 26 26 26 26 25 25 24 23 23 22 21 20 20 19 17 16 16 15 15 15 15 15 14 14 14
Wind_Direction
202 214 214 208 200 207 247 261 218 205 231 233 222 219 228 248 239 228 209 200 198 207 199 179 180 214 210 185 184 210 236 347 287 309 334 346 5 348 319 291 277 284 292 307 315 314 329 342 329 328 336 336 339 342 340 334 328 329 330 326 329 329 327 328 327 327 337 344 345 348 349 347 346 344 343 342 342 342 340 340 338 335 334 334 333 332 329
203 212 208 206 206 213 239 245 221 217 212 205 209 215 226 227 210 204 207 192 182 188 182 171 178 230 201 196 205 228 272 286 267 292 305 271 277 300 296 280 262 264 271 276 289 297 305 313 309 311 316 315 319 323 324 324 317 310 313 310 312 320 320 318 316 317 326 334 338 341 344 344 343 342 341 340 340 340 340 340 338 337 336 335 334 333 331
202 205 203 203 205 212 214 206 216 265 335 183 200 232 254 230 218 234 195 155 151 169 177 188 214 230 218 225 238 258 278 284 286 290 274 265 273 281 282 272 250 246 255 259 274 284 291 299 297 297 300 301 306 309 310 314 310 303 301 296 296 305 307 305 306 309 319 326 330 335 338 340 341 340 340 339 339 338 339 339 338 338 338 336 334 333 332
205 205 207 204 198 202 201 194 201 251 20 140 182 190 273 250 261 19 124 159 212 249 257 252 252 246 237 241 256 266 270 277 281 281 274 273 270 270 275 270 250 241 243 248 269 284 293 300 297 295 294 292 297 301 302 305 304 299 296 289 287 292 293 295 298 303 311 318 324 330 333 335 337 338 339 339 339 338 337 338 339 339 338 336 334 334 334
204 201 205 207 199 193 186 189 202 170 132 155 189 181 31 9 201 180 157 218 236 258 277 267 252 243 244 255 266 265 268 275 272 271 278 282 280 282 286 284 280 292 308 328 338 336 324 317 308 302 296 292 296 298 297 299 298 295 292 287 284 283 283 288 292 297 305 311 317 324 328 332 335 337 338 339 338 338 338 338 338 337 337 337 335 334 334
211 208 209 210 202 195 190 195 201 183 186 223 232 214 297 69 193 204 224 240 242 261 275 253 232 237 245 251 261 264 270 273 270 273 282 290 298 305 311 315 324 339 355 359 353 345 337 331 320 311 304 300 301 300 297 296 294 293 291 286 283 279 279 282 287 292 299 305 311 317 323 329 334 336 338 338 336 336 337 338 337 337 338 337 335 335 334
209 213 218 216 204 200 214 224 193 191 217 234 197 180 191 137 178 196 208 225 242 258 263 230 226 242 238 239 263 275 273 271 275 282 291 302 309 318 332 342 342 345 348 346 342 337 333 333 326 318 312 308 306 303 299 295 291 290 289 286 283 280 278 279 282 288 295 300 306 312 318 326 333 336 337 336 335 334 336 337 337 337 338 337 337 338 337
204 211 223 222 206 203 215 229 212 201 221 224 194 175 193 188 192 207 209 205 222 258 268 249 238 240 237 250 287 293 290 295 297 297 307 318 320 330 341 338 336 338 337 336 336 333 330 329 324 317 313 310 307 304 301 296 290 288 287 286 284 280 279 279 280 285 293 298 303 307 313 322 331 335 336 335 334 335 336 336 336 336 337 336 336 336 336
201 209 219 215 208 210 217 227 227 214 215 223 216 202 197 198 206 216 209 197 200 222 231 220 215 229 248 273 292 294 301 319 321 319 323 324 324 330 333 330 334 338 336 333 333 331 326 322 318 314 311 309 307 304 303 300 294 289 286 285 283 280 280 280 280 284 290 296 301 305 310 318 327 332 334 335 334 334 335 335 334 335 335 335 335 335 335
197 202 208 208 213 220 221 223 224 212 208 217 215 203 222 243 220 199 181 170 176 184 182 179 176 170 249 260 279 286 299 320 325 326 329 330 327 328 331 334 336 337 333 331 330 327 322 317 313 309 306 306 306 304 304 304 301 294 290 287 283 280 281 282 282 283 287 292 299 304 309 316 323 329 332 332 331 333 335 335 335 335 336 335 335 336 336
206 211 212 211 220 229 226 223 223 217 216 220 210 197 226 250 193 174 175 165 169 183 171 167 175 271 278 270 270 272 297 321 324 326 332 335 333 332 334 335 335 335 334 331 327 323 319 314 308 302 301 305 308 310 309 308 306 302 295 289 284 282 284 285 283 283 285 289 296 302 308 315 321 327 330 329 329 332 336 337 335 335 336 336 335 336 337
219 219 213 215 224 228 234 232 218 212 220 228 226 221 224 221 195 184 183 162 150 157 167 171 212 274 260 269 277 273 291 311 318 326 334 334 333 334 335 333 332 335 335 330 325 322 317 312 305 299 304 316 321 323 322 318 315 311 301 292 285 284 286 286 284 283 283 286 293 300 307 314 320 325 327 327 328 331 334 335 333 332 333 334 334 336 338
217 213 208 215 222 220 229 237 214 220 229 228 228 222 207 200 198 191 177 160 145 133 141 170 205 208 220 258 318 333 304 306 326 337 338 334 334 337 339 337 335 335 335 332 327 323 316 311 305 306 319 330 328 325 323 318 315 315 309 299 290 287 287 287 284 281 281 285 291 298 306 314 319 323 324 326 329 332 334 334 333 333 334 335 337 339 340
207 203 202 210 214 220 235 242 246 253 232 212 210 206 191 184 167 149 148 141 134 125 121 136 152 103 338 326 347 352 326 326 343 346 340 336 336 337 339 340 337 335 335 333 330 326 320 313 312 319 330 334 328 322 321 318 316 317 314 306 296 291 289 288 284 281 281 286 292 298 307 314 318 321 323 326 330 333 335 335 335 336 338 339 340 341 342
198 200 201 205 209 222 240 240 238 241 211 199 203 202 190 176 154 152 163 150 138 131 120 137 246 348 348 329 322 334 337 337 344 343 337 335 337 335 336 339 338 335 333 332 331 330 323 318 321 328 333 332 328 325 324 324 322 321 317 310 302 297 294 291 288 284 283 288 294 301 309 314 317 321 324 328 332 335 336 336 337 339 341 343 343 343 343
206 205 207 210 213 215 210 207 210 197 184 188 193 191 183 171 160 175 199 168 149 165 229 252 291 337 339 315 302 319 334 336 340 341 338 337 337 335 334 336 336 333 331 330 329 329 324 321 324 329 331 330 327 323 321 323 323 322 318 313 309 303 298 295 292 288 288 293 299 305 310 314 318 322 325 329 334 336 337 339 340 341 342 343 344 345 344
210 204 203 205 208 205 189 181 180 179 182 190 196 197 192 186 195 204 209 218 222 231 246 262 305 326 324 314 313 329 339 340 341 342 342 341 339 335 333 333 332 330 329 328 326 326 324 321 322 327 330 329 325 321 320 322 323 322 319 316 311 304 300 297 295 293 293 295 300 305 310 316 322 325 327 333 338 339 338 340 344 345 344 342 342 343 344
199 203 202 193 197 208 201 191 196 203 202 201 203 203 201 209 222 219 218 235 236 223 224 255 306 324 326 328 330 335 339 340 339 339 340 340 338 336 333 331 328 326 325 324 324 324 322 320 320 324 329 329 326 323 321 320 322 323 322 318 312 305 300 297 297 297 294 293 299 305 311 320 326 329 331 335 339 341 339 338 342 344 344 343 342 341 341
215 227 221 202 207 224 221 220 231 229 206 191 193 203 218 230 229 221 224 244 238 213 235 294 319 331 334 332 329 330 333 333 333 334 334 334 334 334 332 329 326 324 322 321 321 321 322 321 321 322 326 328 326 323 320 320 322 323 323 320 313 305 301 299 300 300 294 292 302 310 314 320 325 331 336 338 340 344 344 343 344 345 345 346 345 343 343
221 224 215 204 213 225 227 234 237 225 203 203 212 221 232 236 226 214 217 233 228 228 274 305 316 323 326 324 322 324 326 326 327 329 331 331 332 331 330 328 327 325 322 321 321 320 321 321 321 321 324 325 324 321 319 319 321 321 322 319 312 305 302 302 303 301 293 297 313 321 326 329 333 341 347 346 346 348 348 349 349 349 350 351 349 347 349
223 222 219 216 222 226 226 230 231 227 229 238 239 229 218 214 212 208 212 233 247 255 278 297 306 313 318 318 318 320 321 322 323 326 328 329 330 329 329 329 328 326 323 321 320 320 320 319 319 319 321 322 323 321 320 319 318 318 318 315 306 298 296 300 304 305 303 309 317 325 336 342 344 347 350 348 345 345 345 346 346 345 347 347 345 345 348
232 230 224 226 235 236 228 226 229 233 235 236 236 233 217 206 210 219 229 254 273 281 289 294 298 304 309 312 314 317 318 319 322 324 326 327 328 328 329 328 327 326 324 322 320 318 317 316 316 317 318 320 322 321 320 320 317 315 312 306 292 279 279 289 299 305 310 313 312 318 335 345 344 344 346 344 342 342 343 345 346 345 344 342 341 342 345
234 228 223 230 240 233 222 225 233 234 232 227 228 233 229 223 229 237 241 251 265 277 287 294 298 300 303 308 311 314 316 318 321 323 325 325 326 327 327 327 326 326 325 323 321 318 315 314 315 315 315 317 320 320 320 320 317 312 304 290 274 265 273 286 296 305 313 314 311 318 336 344 341 342 343 342 342 343 345 347 350 352 350 347 345 345 344
228 226 229 237 238 226 220 229 234 231 231 230 229 230 234 237 241 248 254 259 265 270 278 289 297 299 301 305 309 311 314 317 320 322 323 322 323 324 325 325 325 324 324 323 321 318 315 313 312 312 312 313 316 318 320 323 322 313 292 271 263 264 279 292 299 303 307 312 316 326 340 342 339 338 339 339 341 344 348 351 354 354 353 352 352 352 351
227 228 233 237 235 232 231 234 233 232 234 234 230 231 238 243 246 251 258 263 269 273 276 284 295 298 299 304 307 309 311 314 317 318 319 318 320 321 323 323 323 322 320 319 318 316 314 311 308 308 307 307 310 314 319 325 327 313 281 267 267 275 288 298 299 297 300 309 321 331 336 335 334 334 336 338 339 342 347 352 353 353 352 353 354 356 357
225 226 230 229 230 233 235 233 231 231 233 233 232 239 247 251 250 251 254 260 271 279 281 285 293 296 297 300 304 306 309 311 313 314 314 315 317 319 320 320 320 319 317 316 314 314 313 309 305 304 302 301 303 307 313 320 321 305 283 277 276 279 287 293 294 295 299 309 321 327 328 328 329 331 333 335 336 339 344 348 349 349 349 351 354 358 1
224 227 229 229 230 234 237 235 232 229 230 233 237 243 249 250 250 254 258 265 274 283 288 293 297 298 297 299 302 305 308 310 311 311 312 313 315 316 316 316 316 316 316 313 311 311 310 307 303 299 296 295 296 297 301 309 311 300 283 278 278 278 281 284 288 292 295 303 312 316 319 323 328 330 332 334 335 337 341 343 343 343 344 347 352 359 2
228 230 231 231 233 234 233 232 228 226 230 235 238 241 246 250 253 257 261 266 272 279 287 295 298 299 300 302 303 305 307 308 309 310 311 311 312 313 313 313 313 314 313 311 309 307 307 305 301 296 292 290 289 289 292 298 300 294 281 274 274 276 278 280 285 288 290 297 304 308 313 321 326 329 330 332 334 336 340 343 343 343 344 347 353 359 1
231 231 232 231 229 227 227 228 227 229 235 242 245 246 250 255 255 256 262 271 277 281 288 295 298 299 301 303 304 304 305 306 307 308 309 309 310 310 310 311 310 310 310 309 307 306 305 304 301 296 291 286 282 282 285 288 290 288 281 273 271 273 276 279 282 285 289 294 299 304 311 317 323 327 328 329 331 336 342 345 345 347 348 349 354 359 360
232 231 232 229 223 221 226 230 233 237 242 247 250 253 258 261 260 261 270 281 285 288 291 295 296 298 300 302 303 303 304 305 306 306 307 307 308 309 309 309 309 308 308 308 308 307 306 304 301 297 291 285 279 277 278 280 282 283 280 274 271 271 273 277 280 283 288 293 295 300 307 313 318 324 325 326 329 335 341 342 341 344 348 349 352 358 358
228 228 231 229 224 226 230 234 239 243 244 248 252 254 258 262 264 267 274 280 283 286 289 290 293 296 299 301 302 303 303 303 304 305 305 306 306 307 307 308 307 306 306 306 306 306 305 303 301 297 292 285 277 273 272 274 277 278 277 273 271 268 266 270 277 281 285 289 291 295 303 309 314 317 320 323 326 332 339 339 337 339 346 352 358 1 359
227 229 232 234 234 235 234 236 243 246 245 248 254 255 257 262 266 270 275 278 280 284 286 288 291 295 298 299 301 301 301 302 303 304 304 305 304 305 306 306 305 305 304 303 303 303 302 301 299 296 291 284 277 271 269 269 271 273 275 273 269 265 262 262 269 276 281 283 287 292 299 304 309 312 315 318 321 327 333 334 334 339 348 355 357 356 355
232 234 236 239 241 241 237 237 244 248 249 252 255 255 257 263 267 270 274 278 280 282 283 286 290 294 297 299 299 300 301 302 303 303 303 303 303 303 304 304 304 303 302 301 300 300 299 298 297 294 289 283 277 271 268 267 267 268 271 271 268 265 261 259 262 268 275 280 284 289 295 300 304 307 310 312 316 323 327 327 331 341 350 353 353 353 356
239 239 240 240 242 244 244 244 246 249 253 256 255 253 256 261 264 266 271 275 278 281 283 286 290 294 297 298 298 299 300 301 302 302 303 303 303 303 303 303 303 302 301 300 299 297 296 295 295 292 288 283 278 272 268 266 266 266 267 268 266 264 261 258 259 263 272 278 280 284 291 296 298 302 305 306 310 317 319 321 328 337 344 349 352 356 1
246 246 246 243 242 245 248 249 248 249 253 256 256 255 256 259 261 265 269 273 277 280 283 287 291 295 297 298 298 298 298 299 300 301 302 302 302 302 302 302 301 301 301 300 299 297 296 294 293 291 286 282 278 274 268 266 266 265 265 265 263 260 259 257 257 260 268 273 275 280 286 290 291 295 299 300 303 310 312 313 320 328 336 345 352 1 15
248 248 248 247 246 247 248 249 250 251 251 252 255 258 260 259 261 265 269 272 275 280 283 287 291 294 295 296 295 295 296 298 299 300 301 302 302 301 300 301 300 300 299 299 299 298 296 294 292 290 286 281 276 273 269 267 265 264 264 263 259 256 256 257 257 260 264 268 271 275 281 283 283 287 291 292 296 301 302 303 310 315 324 338 348 2 20
246 246 247 247 247 247 248 250 252 253 252 252 254 259 262 263 264 268 270 273 276 280 284 287 290 293 293 294 294 295 295 296 297 298 299 299 299 299 298 298 299 298 297 297 298 298 297 296 294 291 287 282 276 273 271 268 264 262 263 262 257 254 254 255 255 256 261 265 267 270 274 276 275 278 283 286 289 291 289 291 296 297 301 322 335 335 330
244 245 246 246 246 246 247 248 250 252 252 253 254 258 262 264 265 267 270 273 276 280 283 286 290 292 293 293 293 293 294 295 295 296 296 297 297 297 296 297 298 297 296 296 297 296 295 294 292 289 286 283 278 274 271 267 263 262 263 262 258 255 254 253 252 253 257 261 262 264 267 269 267 269 275 279 281 282 280 279 281 281 282 296 306 291 275
244 245 246 246 245 245 246 247 248 249 250 252 253 256 259 262 264 267 270 273 276 278 281 285 288 290 291 291 291 292 293 294 294 295 295 296 296 296 296 296 296 296 295 295 295 294 293 291 289 287 285 282 279 275 271 266 262 261 261 261 258 256 255 253 251 251 254 257 257 257 261 262 260 262 269 272 273 274 272 267 265 267 270 276 277 257 234
243 244 244 244 244 244 245 247 248 248 250 252 254 255 256 259 262 266 269 272 275 278 281 284 286 287 287 289 290 291 293 293 294 294 295 295 296 295 295 295 294 294 294 293 293 293 292 290 287 286 284 281 278 275 271 266 262 259 259 259 256 253 252 252 251 251 252 253 253 253 255 256 255 256 261 265 265 266 265 259 256 257 259 260 255 238 220
242 242 243 243 244 244 245 246 247 248 249 251 253 254 255 258 262 266 269 273 276 278 281 282 283 284 285 287 289 291 292 293 294 294 294 295 295 295 294 293 293 293 293 293 292 291 291 288 285 284 283 280 277 274 271 268 263 259 258 257 255 252 250 250 249 249 248 249 249 250 252 253 251 251 254 257 259 259 258 253 249 248 250 248 239 226 215
241 241 242 242 243 243 244 245 246 247 248 249 251 254 256 259 263 267 270 273 276 279 280 281 282 283 285 286 287 289 290 291 292 292 292 292 292 292 292 292 293 293 293 292 292 291 289 287 284 282 281 279 277 273 270 268 264 259 256 254 253 253 252 250 248 247 247 246 247 248 249 250 248 247 248 251 253 253 252 248 243 242 243 240 230 220 213
240 241 241 242 243 243 244 245 245 246 247 249 251 254 258 261 264 268 270 273 276 278 280 281 282 283 284 285 286 287 288 289 290 291 291 291 291 290 290 291 292 292 292 291 290 289 288 286 284 282 280 278 275 273 270 267 264 260 255 253 252 253 252 250 248 247 246 244 244 245 247 247 245 243 243 245 248 249 247 243 239 237 236 232 225 218 211
241 241 242 243 243 243 243 244 245 246 248 250 253 256 259 262 265 268 270 273 275 277 279 281 282 283 284 284 285 286 287 289 290 291 291 291 291 290 290 290 290 291 290 289 288 287 287 285 284 282 280 277 273 271 270 268 264 260 256 254 252 250 249 248 247 246 244 242 242 243 244 244 242 240 240 241 243 244 243 240 236 234 231 227 222 216 210
242 243 243 243 243 243 244 245 246 248 250 252 254 257 260 263 266 268 271 273 276 277 279 280 281 282 283 284 285 286 287 289 290 290 290 290 290 290 290 290 290 289 289 289 288 287 285 284 283 282 279 275 273 271 270 267 264 260 257 255 252 248 246 246 245 242 240 239 240 241 242 241 240 239 238 237 239 241 240 237 233 231 227 223 219 215 210
241 242 242 242 243 244 246 247 248 250 252 254 256 259 261 264 267 269 272 274 276 277 278 279 281 282 283 284 285 286 287 288 289 289 289 289 289 289 289 289 289 288 287 287 286 285 284 284 283 281 278 274 272 271 269 266 263 259 257 256 252 248 246 245 242 239 238 239 239 238 239 239 238 237 235 235 236 237 236 234 231 228 224 222 219 214 210
240 241 242 242 243 244 245 247 249 251 253 256 259 261 263 265 268 270 272 274 276 277 278 279 280 282 282 283 284 286 287 288 289 290 290 291 291 291 290 290 289 288 287 286 284 283 282 281 281 280 277 273 271 270 268 266 262 259 257 256 251 247 245 243 239 236 237 238 237 236 236 236 236 235 233 232 233 234 233 231 229 225 222 220 218 213 209
240 240 241 242 243 244 246 248 251 253 255 258 260 262 264 267 269 271 273 274 275 276 278 279 279 280 281 283 284 285 285 286 288 289 291 292 293 293 293 291 291 290 288 286 284 283 281 280 279 278 275 272 270 268 267 265 262 259 257 255 250 246 244 241 237 236 237 237 236 235 233 233 234 233 231 229 231 232 231 229 228 224 221 219 217 213 210
240 239 240 241 242 244 247 249 251 253 255 258 260 263 265 267 268 270 272 273 274 276 277 277 278 279 281 282 283 284 284 285 287 288 290 292 293 294 294 293 292 290 289 287 285 283 282 280 278 275 273 270 269 267 265 264 262 259 256 252 247 244 242 239 236 235 236 235 233 232 231 230 231 231 229 227 229 229 228 228 227 223 219 218 217 214 212
237 237 239 241 243 246 249 251 252 254 256 258 261 263 265 267 268 269 271 272 273 275 276 277 278 280 281 282 283 284 285 286 287 288 290 291 293 294 294 294 292 291 289 287 285 283 281 280 278 275 272 270 268 265 263 262 260 258 255 249 243 240 239 236 234 233 233 232 231 230 229 228 229 229 227 226 227 227 226 226 226 222 219 218 217 215 214
236 237 240 242 244 247 249 251 253 254 256 259 261 263 265 267 269 270 270 271 272 274 275 276 278 280 281 282 283 284 286 287 289 290 291 293 294 295 295 295 294 292 290 288 285 283 281 280 278 275 272 269 267 265 263 261 258 257 253 248 242 239 239 237 234 233 232 230 229 228 226 225 227 228 226 225 225 225 224 225 225 222 219 218 218 217 216
236 239 241 243 245 247 249 251 252 254 257 259 261 264 266 268 269 270 271 272 274 275 275 276 278 279 281 283 284 285 287 289 290 291 292 294 296 297 297 297 296 294 292 289 286 284 282 280 277 274 271 269 266 264 262 260 258 256 252 246 242 240 240 237 234 232 230 228 226 226 224 224 225 226 225 223 223 223 224 225 225 223 220 219 219 219 217